Location: Newark
(18.1281°S, 69.1289°W)
Time: 13:54:01
(UTC+00:00)

Hubble Space Telescope - Visible Passes

Search period start: 07 December 2019 00:00
Search period end: 17 December 2019 00:00
Orbit: 536 x 540 km, 28.5° (Epoch: 06 December)

Date Brightness Start Highest point End Pass type
(mag) Time Alt. Az. Time Alt. Az. Time Alt. Az.
07 Dec 1.2 00:57:59 10° WNW 01:01:40 60° SW 01:01:40 60° SW visible
07 Dec 2.6 07:51:03 23° NE 07:51:03 23° NE 07:52:44 10° ENE visible
07 Dec 2.6 09:27:16 10° WNW 09:29:34 14° NNW 09:31:51 10° N visible
08 Dec 1.5 00:47:30 10° W 00:51:32 50° SSW 00:52:44 37° SSE visible
08 Dec 2.9 09:18:24 10° NW 09:18:55 10° NNW 09:19:26 10° NNW visible
09 Dec 2.0 00:37:05 10° W 00:41:00 40° SSW 00:43:33 19° SE visible
10 Dec 2.4 00:26:43 10° W 00:30:29 33° SSW 00:34:08 11° SE visible
10 Dec 4.0 02:09:12 10° SW 02:09:30 11° SW 02:09:30 11° SW visible
11 Dec 2.7 00:16:22 10° WSW 00:19:59 28° SSW 00:23:36 10° SE visible
11 Dec 3.8 01:58:48 10° SW 01:59:51 14° SW 01:59:51 14° SW visible
12 Dec 2.9 00:06:03 10° WSW 00:09:30 25° S 00:12:57 10° SE visible
12 Dec 3.5 01:48:20 10° SW 01:50:02 17° SSW 01:50:02 17° SSW visible
12 Dec 3.0 23:55:44 10° WSW 23:59:01 22° S 00:02:19 10° SE visible
13 Dec 3.3 01:37:50 10° SW 01:40:06 19° SSW 01:40:06 19° SSW visible
13 Dec 3.1 23:45:24 10° SW 23:48:34 21° S 23:51:43 10° SE visible
14 Dec 3.0 01:27:16 10° SW 01:30:04 21° S 01:30:04 21° S visible
14 Dec 3.1 23:35:03 10° SW 23:38:06 19° S 23:41:10 10° SE visible
15 Dec 2.7 01:16:40 10° SW 01:19:58 23° S 01:19:58 23° S visible
16 Dec 2.5 01:06:02 10° SW 01:09:31 25° SSE 01:09:50 25° SSE visible
